This is the latest recevied weather packets stored in our database for station/object AB1AU. If no packets are shown the sender has not sent any weather packets the latest 10 day(s).
| Time | Temp. | Humidity | Pressure | Rain* | Wind** | Luminosity | Snow |
|---|---|---|---|---|---|---|---|
| 1788554292 | 24.44° C | 73% | 1008.2 hPa | 0 mm | - | 22 W/m² | - |
| 1788553988 | 24.44° C | 72% | 1008.2 hPa | 0 mm | - | 34 W/m² | - |
| 1788553684 | 24.44° C | 72% | 1008.2 hPa | 0 mm | - | 54 W/m² | - |
| 1788553380 | 24.44° C | 72% | 1008.1 hPa | 0 mm | - | 26 W/m² | - |
| 1788553075 | 25° C | 70% | 1008 hPa | 0 mm | - | 20 W/m² | - |
| 1788552775 | 24.44° C | 69% | 1008.4 hPa | 0 mm | - | 26 W/m² | - |
| 1788552470 | 23.89° C | 75% | 1008.3 hPa | 0 mm | - | 32 W/m² | - |
| 1788552164 | 23.33° C | 75% | 1008.3 hPa | 0 mm | - | 52 W/m² | - |
| 1788551864 | 23.33° C | 76% | 1008.3 hPa | 0 mm | - | 54 W/m² | - |
| 1788551562 | 22.78° C | 76% | 1008.2 hPa | 0 mm | - | 44 W/m² | - |
| 1788551257 | 22.78° C | 77% | 1008.2 hPa | 0 mm | - | 47 W/m² | - |
| 1788550956 | 22.78° C | 79% | 1008.4 hPa | 0 mm | - | 67 W/m² | - |
| 1788550652 | 22.22° C | 80% | 1008.5 hPa | 0 mm | - | 74 W/m² | - |
| 1788550348 | 21.67° C | 81% | 1008.4 hPa | 0 mm | - | 80 W/m² | - |
| 1788550043 | 21.67° C | 83% | 1008.6 hPa | 0 mm | - | 77 W/m² | - |
| 1788549738 | 21.11° C | 84% | 1008.5 hPa | 0 mm | - | 64 W/m² | - |
| 1788549435 | 20.56° C | 84% | 1008.3 hPa | 0 mm | - | 61 W/m² | - |
| 1788549130 | 20.56° C | 84% | 1008.5 hPa | 0 mm | - | 57 W/m² | - |
| 1788548827 | 20.56° C | 85% | 1008.7 hPa | 0 mm | - | 42 W/m² | - |
| 1788548517 | 20.56° C | 85% | 1008.5 hPa | 0 mm | - | 38 W/m² | - |
| 1788548214 | 20.56° C | 86% | 1008.6 hPa | 0 mm | - | 38 W/m² | - |
| 1788547913 | 20.56° C | 87% | 1008.4 hPa | 0 mm | - | 36 W/m² | - |
| 1788547612 | 20.56° C | 88% | 1008.7 hPa | 0 mm | - | 31 W/m² | - |
| 1788547308 | 20.56° C | 87% | 1008.7 hPa | 0 mm | - | 33 W/m² | - |
| 1788547003 | 20.56° C | 88% | 1008.7 hPa | 0 mm | - | 45 W/m² | - |
* Rain latest hour (hover to see other rain measurements)
** Current wind speed in m/s (hover to see current wind gust speed)